| time (UTC) | temp F | wind direction | speed knots | gust knots | rain 1hr in | rain 24hr in | rain mn in | humidity % | barometer mb |
| 20260504194633 | 70 | 140 | 5.2 | 0.0 | 0.00 | 0.00 | 0.00 | 65 | 1012.0 |
| 20260504194327 | 70 | 140 | 5.2 | 0.0 | 0.00 | 0.00 | 0.00 | 65 | 1012.0 |
| 20260504194025 | 74 | 140 | 5.2 | 0.0 | 0.00 | 0.00 | 0.00 | 65 | 1012.0 |
| 20260504193723 | 78 | 140 | 5.2 | 0.0 | 0.00 | 0.00 | 0.00 | 65 | 1012.0 |
| 20260504193044 | 70 | 140 | 5.2 | 0.0 | 0.00 | 0.00 | 0.00 | 65 | 1012.0 |
| 20260504192737 | 70 | 140 | 5.2 | 0.0 | 0.00 | 0.00 | 0.00 | 65 | 1012.0 |
| 20260504192434 | 74 | 140 | 5.2 | 0.0 | 0.00 | 0.00 | 0.00 | 65 | 1012.0 |
| 20260504192128 | 74 | 140 | 5.2 | 0.0 | 0.00 | 0.00 | 0.00 | 65 | 1012.0 |
| 20260504191821 | 78 | 140 | 5.2 | 0.0 | 0.00 | 0.00 | 0.00 | 65 | 1012.0 |
| 20260504191514 | 72 | 140 | 7.8 | 0.0 | 0.00 | 0.00 | 0.00 | 69 | 1012.0 |
| 20260504191213 | 78 | 140 | 5.2 | 0.0 | 0.00 | 0.00 | 0.00 | 65 | 1012.0 |
| 20260504190905 | 72 | 140 | 7.8 | 0.0 | 0.00 | 0.00 | 0.00 | 69 | 1012.0 |
| 20260504190245 | 76 | 140 | 7.8 | 0.0 | 0.00 | 0.00 | 0.00 | 69 | 1013.0 |
| 20260504185941 | 76 | 140 | 7.8 | 0.0 | 0.00 | 0.00 | 0.00 | 69 | 1013.0 |
| 20260504185634 | 72 | 140 | 7.8 | 0.0 | 0.00 | 0.00 | 0.00 | 69 | 1013.0 |
| 20260504185031 | 76 | 140 | 7.8 | 0.0 | 0.00 | 0.00 | 0.00 | 69 | 1013.0 |
| 20260504184728 | 76 | 140 | 7.8 | 0.0 | 0.00 | 0.00 | 0.00 | 69 | 1013.0 |
| 20260504184420 | 72 | 140 | 7.8 | 0.0 | 0.00 | 0.00 | 0.00 | 69 | 1013.0 |
| 20260504184048 | 76 | 140 | 7.8 | 0.0 | 0.00 | 0.00 | 0.00 | 69 | 1013.0 |
| 20260504183745 | 72 | 140 | 7.8 | 0.0 | 0.00 | 0.00 | 0.00 | 69 | 1013.0 |
| 20260504183438 | 72 | 140 | 7.8 | 0.0 | 0.00 | 0.00 | 0.00 | 69 | 1013.0 |
| 20260504183135 | 76 | 140 | 7.8 | 0.0 | 0.00 | 0.00 | 0.00 | 69 | 1013.0 |
| 20260504182829 | 72 | 140 | 7.8 | 0.0 | 0.00 | 0.00 | 0.00 | 69 | 1014.0 |
| 20260504182522 | 72 | 140 | 7.8 | 0.0 | 0.00 | 0.00 | 0.00 | 69 | 1014.0 |
| 20260504182217 | 76 | 140 | 7.8 | 0.0 | 0.00 | 0.00 | 0.00 | 69 | 1014.0 |
| 20260504181914 | 72 | 140 | 7.8 | 0.0 | 0.00 | 0.00 | 0.00 | 69 | 1014.0 |
| 20260504181613 | 76 | 140 | 7.8 | 0.0 | 0.00 | 0.00 | 0.00 | 69 | 1014.0 |
| 20260504181309 | 76 | 140 | 7.8 | 0.0 | 0.00 | 0.00 | 0.00 | 69 | 1014.0 |
| 20260504181000 | 70 | 140 | 7.0 | 0.0 | 0.00 | 0.00 | 0.00 | 69 | 1014.0 |
| 20260504180653 | 76 | 140 | 7.8 | 0.0 | 0.00 | 0.00 | 0.00 | 69 | 1014.0 |
| 20260504180352 | 70 | 140 | 7.0 | 0.0 | 0.00 | 0.00 | 0.00 | 69 | 1014.0 |
| 20260504180046 | 70 | 140 | 7.0 | 0.0 | 0.00 | 0.00 | 0.00 | 69 | 1014.0 |
| 20260504175739 | 74 | 140 | 7.0 | 0.0 | 0.00 | 0.00 | 0.00 | 69 | 1014.0 |
| 20260504175433 | 74 | 140 | 7.0 | 0.0 | 0.00 | 0.00 | 0.00 | 69 | 1014.0 |
| 20260504175129 | 78 | 140 | 7.0 | 0.0 | 0.00 | 0.00 | 0.00 | 69 | 1014.0 |
| 20260504174823 | 78 | 140 | 7.0 | 0.0 | 0.00 | 0.00 | 0.00 | 69 | 1014.0 |
| 20260504174516 | 78 | 140 | 7.0 | 0.0 | 0.00 | 0.00 | 0.00 | 69 | 1014.0 |
| 20260504174210 | 78 | 140 | 7.0 | 0.0 | 0.00 | 0.00 | 0.00 | 69 | 1014.0 |
| 20260504173908 | 78 | 140 | 7.0 | 0.0 | 0.00 | 0.00 | 0.00 | 69 | 1014.0 |
| 20260504173602 | 70 | 140 | 7.0 | 0.0 | 0.00 | 0.00 | 0.00 | 69 | 1014.0 |
| 20260504173300 | 74 | 140 | 7.0 | 0.0 | 0.00 | 0.00 | 0.00 | 69 | 1015.0 |
| 20260504172958 | 74 | 140 | 7.0 | 0.0 | 0.00 | 0.00 | 0.00 | 69 | 1015.0 |
| 20260504172652 | 74 | 140 | 7.0 | 0.0 | 0.00 | 0.00 | 0.00 | 69 | 1015.0 |
| 20260504172345 | 74 | 140 | 7.0 | 0.0 | 0.00 | 0.00 | 0.00 | 69 | 1015.0 |
| 20260504172044 | 78 | 140 | 7.0 | 0.0 | 0.00 | 0.00 | 0.00 | 69 | 1015.0 |
| 20260504171741 | 74 | 140 | 7.0 | 0.0 | 0.00 | 0.00 | 0.00 | 69 | 1015.0 |
| 20260504171429 | 78 | 140 | 7.0 | 0.0 | 0.00 | 0.00 | 0.00 | 69 | 1015.0 |
| 20260504171119 | 78 | 140 | 7.0 | 0.0 | 0.00 | 0.00 | 0.00 | 69 | 1015.0 |
| 20260504170806 | 72 | 140 | 3.5 | 0.0 | 0.00 | 0.00 | 0.00 | 69 | 1015.0 |
| 20260504170504 | 76 | 140 | 3.5 | 0.0 | 0.00 | 0.00 | 0.00 | 69 | 1015.0 |
| 20260504170157 | 76 | 140 | 3.5 | 0.0 | 0.00 | 0.00 | 0.00 | 69 | 1015.0 |
| 20260504160318 | 72 | 0 | 1.7 | 0.0 | 0.00 | 0.00 | 0.00 | 65 | 1016.0 |
| 20260504151024 | 71 | 280 | 5.2 | 0.0 | 0.00 | 0.00 | 0.00 | 83 | 1017.0 |
| 20260504150717 | 71 | 280 | 5.2 | 0.0 | 0.00 | 0.00 | 0.00 | 83 | 1017.0 |
| 20260504150416 | 67 | 280 | 5.2 | 0.0 | 0.00 | 0.00 | 0.00 | 83 | 1017.0 |
| 20260504150114 | 67 | 280 | 5.2 | 0.0 | 0.00 | 0.00 | 0.00 | 83 | 1017.0 |
| 20260504141125 | 67 | 0 | 1.7 | 0.0 | 0.00 | 0.00 | 0.00 | 94 | 1017.0 |
| 20260504140816 | 71 | 280 | 5.2 | 0.0 | 0.00 | 0.00 | 0.00 | 83 | 1017.0 |
| 20260504140154 | 67 | 0 | 1.7 | 0.0 | 0.00 | 0.00 | 0.00 | 94 | 1017.0 |
| 20260504130815 | 63 | 320 | 3.5 | 0.0 | 0.00 | 0.00 | 0.00 | 94 | 1017.0 |
| 20260504130514 | 67 | 320 | 3.5 | 0.0 | 0.00 | 0.00 | 0.00 | 94 | 1017.0 |
| 20260504130209 | 67 | 320 | 3.5 | 0.0 | 0.00 | 0.00 | 0.00 | 94 | 1017.0 |
| 20260504120305 | 62 | 0 | 1.7 | 0.0 | 0.00 | 0.00 | 0.00 | 10 | 1016.0 |
| 20260504110710 | 62 | 30 | 2.6 | 0.0 | 0.00 | 0.00 | 0.00 | 10 | 1016.0 |
| 20260504110407 | 62 | 30 | 2.6 | 0.0 | 0.00 | 0.00 | 0.00 | 10 | 1016.0 |
| 20260504100445 | 62 | 280 | 4.3 | 0.0 | 0.00 | 0.00 | 0.00 | 94 | 1015.0 |
| 20260504100136 | 62 | 280 | 4.3 | 0.0 | 0.00 | 0.00 | 0.00 | 94 | 1015.0 |
| 20260504081830 | 63 | 300 | 3.5 | 0.0 | 0.06 | 0.00 | 0.00 | 94 | 1015.0 |
| 20260504081521 | 67 | 300 | 3.5 | 0.0 | 0.06 | 0.00 | 0.00 | 94 | 1015.0 |
| 20260504081213 | 63 | 300 | 3.5 | 0.0 | 0.06 | 0.00 | 0.00 | 94 | 1015.0 |
| 20260504080859 | 63 | 300 | 3.5 | 0.0 | 0.06 | 0.00 | 0.00 | 94 | 1015.0 |
| 20260504080550 | 63 | 300 | 3.5 | 0.0 | 0.06 | 0.00 | 0.00 | 94 | 1015.0 |
| 20260504080241 | 67 | 300 | 3.5 | 0.0 | 0.03 | 0.00 | 0.00 | 94 | 1015.0 |
| 20260504070332 | 67 | 0 | 1.7 | 0.0 | 0.00 | 0.00 | 0.00 | 78 | 1016.0 |
| 20260504060127 | 69 | 0 | 2.6 | 0.0 | 0.00 | 0.00 | 0.00 | 10 | 1016.0 |
| 20260504050159 | 61 | 318 | 2.6 | 2.6 | 0.00 | 0.00 | 0.00 | 90 | 1017.0 |
| 20260504045851 | 61 | 318 | 2.6 | 2.6 | 0.00 | 0.00 | 0.00 | 90 | 1017.0 |
| 20260504045545 | 61 | 318 | 2.6 | 2.6 | 0.00 | 0.00 | 0.00 | 90 | 1017.0 |
| 20260504045238 | 61 | 318 | 2.6 | 2.6 | 0.00 | 0.00 | 0.00 | 90 | 1017.0 |
| 20260504044927 | 61 | 318 | 2.6 | 2.6 | 0.00 | 0.00 | 0.00 | 90 | 1017.0 |
| 20260504044610 | 61 | 318 | 2.6 | 2.6 | 0.00 | 0.00 | 0.00 | 90 | 1017.0 |
| 20260504044309 | 61 | 318 | 2.6 | 2.6 | 0.00 | 0.00 | 0.00 | 90 | 1017.0 |
| 20260504043957 | 61 | 318 | 2.6 | 2.6 | 0.00 | 0.00 | 0.00 | 90 | 1017.0 |
| 20260504043651 | 61 | 318 | 2.6 | 2.6 | 0.00 | 0.00 | 0.00 | 90 | 1017.0 |
| 20260504043348 | 61 | 318 | 2.6 | 2.6 | 0.00 | 0.00 | 0.00 | 90 | 1017.0 |
| 20260504043040 | 61 | 328 | 4.3 | 2.6 | 0.00 | 0.00 | 0.00 | 86 | 1017.0 |
| 20260504042733 | 61 | 328 | 4.3 | 2.6 | 0.00 | 0.00 | 0.00 | 86 | 1017.0 |
| 20260504042423 | 61 | 328 | 4.3 | 2.6 | 0.00 | 0.00 | 0.00 | 86 | 1017.0 |
| 20260504042116 | 61 | 328 | 4.3 | 2.6 | 0.00 | 0.00 | 0.00 | 86 | 1017.0 |
| 20260504041810 | 61 | 0 | 0.9 | 0.0 | 0.00 | 0.00 | 0.00 | 78 | 1017.0 |
| 20260504041458 | 61 | 0 | 0.9 | 0.0 | 0.00 | 0.00 | 0.00 | 78 | 1017.0 |
| 20260504041152 | 65 | 0 | 0.9 | 0.0 | 0.00 | 0.00 | 0.00 | 78 | 1017.0 |
| 20260504040850 | 69 | 0 | 0.9 | 0.0 | 0.00 | 0.00 | 0.00 | 78 | 1017.0 |
| 20260504040543 | 73 | 0 | 0.9 | 0.0 | 0.00 | 0.00 | 0.00 | 78 | 1017.0 |
| 20260504040242 | 69 | 0 | 0.9 | 0.0 | 0.00 | 0.00 | 0.00 | 78 | 1017.0 |
| 20260504035939 | 69 | 0 | 0.9 | 0.0 | 0.00 | 0.00 | 0.00 | 78 | 1017.0 |
| 20260504035637 | 73 | 0 | 0.9 | 0.0 | 0.00 | 0.00 | 0.00 | 78 | 1017.0 |
| 20260504035336 | 73 | 0 | 0.9 | 0.0 | 0.00 | 0.00 | 0.00 | 78 | 1017.0 |
| 20260504035027 | 69 | 0 | 0.9 | 0.0 | 0.00 | 0.00 | 0.00 | 78 | 1017.0 |
| 20260504034720 | 73 | 0 | 0.9 | 0.0 | 0.00 | 0.00 | 0.00 | 78 | 1017.0 |
| 20260504034414 | 73 | 0 | 0.9 | 0.0 | 0.00 | 0.00 | 0.00 | 78 | 1017.0 |
| 20260504034103 | 73 | 0 | 0.9 | 0.0 | 0.00 | 0.00 | 0.00 | 78 | 1017.0 |
| 20260504033759 | 61 | 0 | 0.9 | 0.0 | 0.00 | 0.00 | 0.00 | 78 | 1017.0 |
| 20260504033441 | 61 | 0 | 0.9 | 0.0 | 0.00 | 0.00 | 0.00 | 78 | 1017.0 |
| 20260504033125 | 65 | 0 | 0.9 | 0.0 | 0.00 | 0.00 | 0.00 | 78 | 1017.0 |
| 20260504032818 | 69 | 0 | 0.9 | 0.0 | 0.00 | 0.00 | 0.00 | 78 | 1017.0 |
| 20260504032511 | 73 | 0 | 0.9 | 0.0 | 0.00 | 0.00 | 0.00 | 78 | 1017.0 |
| 20260504032204 | 69 | 0 | 0.9 | 0.0 | 0.00 | 0.00 | 0.00 | 78 | 1017.0 |
| 20260504031901 | 73 | 0 | 0.9 | 0.0 | 0.00 | 0.00 | 0.00 | 78 | 1017.0 |
| 20260504031554 | 61 | 280 | 2.6 | 0.0 | 0.00 | 0.00 | 0.00 | 78 | 1017.0 |
| 20260504031245 | 61 | 280 | 2.6 | 0.0 | 0.00 | 0.00 | 0.00 | 78 | 1017.0 |
| 20260504030938 | 65 | 280 | 2.6 | 0.0 | 0.00 | 0.00 | 0.00 | 78 | 1017.0 |
| 20260504030632 | 61 | 280 | 2.6 | 0.0 | 0.00 | 0.00 | 0.00 | 78 | 1017.0 |
| 20260504030329 | 65 | 280 | 2.6 | 0.0 | 0.00 | 0.00 | 0.00 | 78 | 1017.0 |
| 20260504030014 | 65 | 280 | 2.6 | 0.0 | 0.00 | 0.00 | 0.00 | 78 | 1017.0 |
| 20260504025712 | 69 | 280 | 2.6 | 0.0 | 0.00 | 0.00 | 0.00 | 78 | 1017.0 |
| 20260504025407 | 69 | 280 | 2.6 | 0.0 | 0.00 | 0.00 | 0.00 | 78 | 1017.0 |
| 20260504025100 | 73 | 280 | 2.6 | 0.0 | 0.00 | 0.00 | 0.00 | 78 | 1017.0 |
| 20260504024736 | 73 | 280 | 2.6 | 0.0 | 0.00 | 0.00 | 0.00 | 78 | 1017.0 |
| 20260504024429 | 61 | 280 | 2.6 | 0.0 | 0.00 | 0.00 | 0.00 | 78 | 1017.0 |
| 20260504024121 | 73 | 280 | 2.6 | 0.0 | 0.00 | 0.00 | 0.00 | 78 | 1017.0 |
| 20260504023819 | 61 | 280 | 2.6 | 0.0 | 0.00 | 0.00 | 0.00 | 78 | 1017.0 |
| 20260504023511 | 61 | 280 | 2.6 | 0.0 | 0.00 | 0.00 | 0.00 | 78 | 1017.0 |
| 20260504023205 | 61 | 280 | 2.6 | 0.0 | 0.00 | 0.00 | 0.00 | 78 | 1017.0 |
| 20260504022903 | 65 | 280 | 2.6 | 0.0 | 0.00 | 0.00 | 0.00 | 78 | 1016.0 |
| 20260504022602 | 69 | 280 | 2.6 | 0.0 | 0.00 | 0.00 | 0.00 | 78 | 1016.0 |
| 20260504022255 | 69 | 280 | 2.6 | 0.0 | 0.00 | 0.00 | 0.00 | 78 | 1016.0 |
| 20260504021953 | 73 | 280 | 2.6 | 0.0 | 0.00 | 0.00 | 0.00 | 78 | 1016.0 |
| 20260504021646 | 69 | 280 | 2.6 | 0.0 | 0.00 | 0.00 | 0.00 | 78 | 1016.0 |
| 20260504021335 | 73 | 280 | 2.6 | 0.0 | 0.00 | 0.00 | 0.00 | 78 | 1016.0 |
| 20260504021028 | 73 | 280 | 2.6 | 0.0 | 0.00 | 0.00 | 0.00 | 78 | 1016.0 |
| 20260504020721 | 61 | 0 | 1.7 | 0.0 | 0.00 | 0.00 | 0.00 | 78 | 1016.0 |
| 20260504020418 | 61 | 0 | 1.7 | 0.0 | 0.00 | 0.00 | 0.00 | 78 | 1016.0 |
| 20260504020109 | 65 | 0 | 1.7 | 0.0 | 0.00 | 0.00 | 0.00 | 78 | 1016.0 |
| 20260504015808 | 65 | 0 | 1.7 | 0.0 | 0.00 | 0.00 | 0.00 | 78 | 1016.0 |
| 20260504015501 | 69 | 0 | 1.7 | 0.0 | 0.00 | 0.00 | 0.00 | 78 | 1016.0 |
| 20260504015155 | 73 | 0 | 1.7 | 0.0 | 0.00 | 0.00 | 0.00 | 78 | 1016.0 |
| 20260504014845 | 73 | 0 | 1.7 | 0.0 | 0.00 | 0.00 | 0.00 | 78 | 1016.0 |
| 20260504014537 | 61 | 0 | 1.7 | 0.0 | 0.00 | 0.00 | 0.00 | 78 | 1016.0 |
| 20260504014226 | 61 | 0 | 1.7 | 0.0 | 0.00 | 0.00 | 0.00 | 78 | 1016.0 |
| 20260504013919 | 65 | 0 | 1.7 | 0.0 | 0.00 | 0.00 | 0.00 | 78 | 1015.0 |
| 20260504012937 | 65 | 0 | 1.7 | 0.0 | 0.00 | 0.00 | 0.00 | 78 | 1015.0 |
| 20260504012635 | 69 | 0 | 1.7 | 0.0 | 0.00 | 0.00 | 0.00 | 78 | 1015.0 |
| 20260504012332 | 73 | 0 | 1.7 | 0.0 | 0.00 | 0.00 | 0.00 | 78 | 1015.0 |
| 20260504012031 | 69 | 0 | 1.7 | 0.0 | 0.00 | 0.00 | 0.00 | 78 | 1015.0 |
| 20260504011729 | 73 | 0 | 1.7 | 0.0 | 0.00 | 0.00 | 0.00 | 78 | 1015.0 |
| 20260504011428 | 73 | 0 | 1.7 | 0.0 | 0.00 | 0.00 | 0.00 | 78 | 1015.0 |
| 20260504010739 | 63 | 0 | 1.7 | 0.0 | 0.00 | 0.00 | 0.00 | 73 | 1015.0 |
| 20260504010124 | 67 | 0 | 1.7 | 0.0 | 0.00 | 0.00 | 0.00 | 73 | 1015.0 |
| 20260504005816 | 71 | 0 | 1.7 | 0.0 | 0.00 | 0.00 | 0.00 | 73 | 1015.0 |
| 20260504005514 | 75 | 0 | 1.7 | 0.0 | 0.00 | 0.00 | 0.00 | 73 | 1015.0 |
| 20260504005212 | 75 | 0 | 1.7 | 0.0 | 0.00 | 0.00 | 0.00 | 73 | 1015.0 |
| 20260504004512 | 64 | 140 | 2.6 | 0.0 | 0.00 | 0.00 | 0.00 | 69 | 1015.0 |
| 20260504004203 | 64 | 140 | 2.6 | 0.0 | 0.00 | 0.00 | 0.00 | 69 | 1015.0 |
| 20260504003900 | 68 | 140 | 2.6 | 0.0 | 0.00 | 0.00 | 0.00 | 69 | 1014.0 |
| 20260504003554 | 64 | 140 | 2.6 | 0.0 | 0.00 | 0.00 | 0.00 | 69 | 1015.0 |
| 20260504003250 | 68 | 140 | 2.6 | 0.0 | 0.00 | 0.00 | 0.00 | 69 | 1014.0 |
| 20260504002948 | 68 | 140 | 2.6 | 0.0 | 0.00 | 0.00 | 0.00 | 69 | 1014.0 |
| 20260504002644 | 68 | 140 | 2.6 | 0.0 | 0.00 | 0.00 | 0.00 | 69 | 1014.0 |
| 20260504002335 | 72 | 140 | 2.6 | 0.0 | 0.00 | 0.00 | 0.00 | 69 | 1014.0 |
| 20260504002024 | 68 | 140 | 2.6 | 0.0 | 0.00 | 0.00 | 0.00 | 69 | 1014.0 |
| 20260504001722 | 72 | 140 | 2.6 | 0.0 | 0.00 | 0.00 | 0.00 | 69 | 1014.0 |
| 20260504001411 | 76 | 140 | 2.6 | 0.0 | 0.00 | 0.00 | 0.00 | 69 | 1014.0 |
| 20260504001109 | 76 | 140 | 2.6 | 0.0 | 0.00 | 0.00 | 0.00 | 69 | 1014.0 |
| 20260504000808 | 76 | 140 | 2.6 | 0.0 | 0.00 | 0.00 | 0.00 | 69 | 1014.0 |
| 20260504000458 | 64 | 140 | 2.6 | 0.0 | 0.00 | 0.00 | 0.00 | 69 | 1014.0 |
| 20260504000152 | 64 | 140 | 2.6 | 0.0 | 0.00 | 0.00 | 0.00 | 69 | 1014.0 |
| 20260503235849 | 68 | 140 | 2.6 | 0.0 | 0.00 | 0.00 | 0.00 | 69 | 1014.0 |
| 20260503235542 | 64 | 140 | 2.6 | 0.0 | 0.00 | 0.00 | 0.00 | 69 | 1014.0 |
| 20260503235235 | 68 | 140 | 2.6 | 0.0 | 0.00 | 0.00 | 0.00 | 69 | 1014.0 |
| 20260503234933 | 68 | 140 | 2.6 | 0.0 | 0.00 | 0.00 | 0.00 | 69 | 1014.0 |
| 20260503234631 | 72 | 140 | 2.6 | 0.0 | 0.00 | 0.00 | 0.00 | 69 | 1014.0 |
| 20260503234329 | 72 | 140 | 2.6 | 0.0 | 0.00 | 0.00 | 0.00 | 69 | 1014.0 |
| 20260503234028 | 72 | 140 | 2.6 | 0.0 | 0.00 | 0.00 | 0.00 | 69 | 1014.0 |
| 20260503233719 | 72 | 140 | 2.6 | 0.0 | 0.00 | 0.00 | 0.00 | 69 | 1014.0 |
| 20260503233414 | 76 | 140 | 2.6 | 0.0 | 0.00 | 0.00 | 0.00 | 69 | 1013.0 |
| 20260503233108 | 76 | 140 | 2.6 | 0.0 | 0.00 | 0.00 | 0.00 | 69 | 1013.0 |
| 20260503232752 | 72 | 140 | 2.6 | 0.0 | 0.00 | 0.00 | 0.00 | 69 | 1013.0 |
| 20260503232446 | 76 | 140 | 2.6 | 0.0 | 0.00 | 0.00 | 0.00 | 69 | 1013.0 |
| 20260503232144 | 66 | 150 | 3.5 | 0.0 | 0.00 | 0.00 | 0.00 | 65 | 1013.0 |
| 20260503231842 | 66 | 150 | 3.5 | 0.0 | 0.00 | 0.00 | 0.00 | 65 | 1013.0 |
| 20260503231536 | 70 | 150 | 3.5 | 0.0 | 0.00 | 0.00 | 0.00 | 65 | 1013.0 |
| 20260503231235 | 70 | 150 | 3.5 | 0.0 | 0.00 | 0.00 | 0.00 | 65 | 1013.0 |
| 20260503230933 | 70 | 150 | 3.5 | 0.0 | 0.00 | 0.00 | 0.00 | 65 | 1013.0 |
| 20260503230626 | 74 | 150 | 3.5 | 0.0 | 0.00 | 0.00 | 0.00 | 65 | 1013.0 |
| 20260503230323 | 78 | 150 | 3.5 | 0.0 | 0.00 | 0.00 | 0.00 | 65 | 1013.0 |
| 20260503230013 | 78 | 150 | 3.5 | 0.0 | 0.00 | 0.00 | 0.00 | 65 | 1013.0 |
| 20260503225711 | 78 | 150 | 3.5 | 0.0 | 0.00 | 0.00 | 0.00 | 65 | 1013.0 |
| 20260503225052 | 66 | 150 | 3.5 | 0.0 | 0.00 | 0.00 | 0.00 | 65 | 1013.0 |
| 20260503224750 | 66 | 150 | 3.5 | 0.0 | 0.00 | 0.00 | 0.00 | 65 | 1013.0 |
| 20260503224449 | 70 | 150 | 3.5 | 0.0 | 0.00 | 0.00 | 0.00 | 65 | 1012.0 |
| 20260503224148 | 70 | 150 | 3.5 | 0.0 | 0.00 | 0.00 | 0.00 | 65 | 1012.0 |
| 20260503223847 | 70 | 150 | 3.5 | 0.0 | 0.00 | 0.00 | 0.00 | 65 | 1012.0 |
| 20260503223544 | 70 | 150 | 3.5 | 0.0 | 0.00 | 0.00 | 0.00 | 65 | 1012.0 |
| 20260503222259 | 74 | 150 | 3.5 | 0.0 | 0.00 | 0.00 | 0.00 | 65 | 1012.0 |
| 20260503221952 | 78 | 150 | 3.5 | 0.0 | 0.00 | 0.00 | 0.00 | 65 | 1012.0 |
| 20260503221330 | 70 | 150 | 4.3 | 0.0 | 0.00 | 0.00 | 0.00 | 65 | 1012.0 |
| 20260503220722 | 74 | 150 | 4.3 | 0.0 | 0.00 | 0.00 | 0.00 | 65 | 1012.0 |
| 20260503220111 | 78 | 150 | 4.3 | 0.0 | 0.00 | 0.00 | 0.00 | 65 | 1012.0 |
| 20260503215124 | 70 | 150 | 4.3 | 0.0 | 0.00 | 0.00 | 0.00 | 65 | 1012.0 |
| 20260503214512 | 70 | 150 | 4.3 | 0.0 | 0.00 | 0.00 | 0.00 | 65 | 1012.0 |
| 20260503214210 | 70 | 150 | 4.3 | 0.0 | 0.00 | 0.00 | 0.00 | 65 | 1012.0 |
| 20260503213907 | 74 | 150 | 4.3 | 0.0 | 0.00 | 0.00 | 0.00 | 65 | 1012.0 |
| 20260503213606 | 74 | 150 | 4.3 | 0.0 | 0.00 | 0.00 | 0.00 | 65 | 1012.0 |
| 20260503213304 | 78 | 150 | 4.3 | 0.0 | 0.00 | 0.00 | 0.00 | 65 | 1011.0 |
| 20260503213001 | 74 | 150 | 4.3 | 0.0 | 0.00 | 0.00 | 0.00 | 65 | 1012.0 |
| 20260503212700 | 78 | 150 | 4.3 | 0.0 | 0.00 | 0.00 | 0.00 | 65 | 1011.0 |
| 20260503212358 | 70 | 150 | 4.3 | 0.0 | 0.00 | 0.00 | 0.00 | 65 | 1011.0 |
| 20260503212044 | 70 | 150 | 4.3 | 0.0 | 0.00 | 0.00 | 0.00 | 65 | 1011.0 |
| 20260503211742 | 74 | 150 | 4.3 | 0.0 | 0.00 | 0.00 | 0.00 | 65 | 1011.0 |
| 20260503211441 | 78 | 150 | 4.3 | 0.0 | 0.00 | 0.00 | 0.00 | 65 | 1012.0 |
| 20260503211139 | 78 | 150 | 4.3 | 0.0 | 0.00 | 0.00 | 0.00 | 65 | 1012.0 |
| 20260503210838 | 78 | 150 | 4.3 | 0.0 | 0.00 | 0.00 | 0.00 | 65 | 1012.0 |
| 20260503210536 | 72 | 150 | 7.0 | 0.0 | 0.00 | 0.00 | 0.00 | 61 | 1012.0 |
| 20260503205926 | 76 | 150 | 7.0 | 0.0 | 0.00 | 0.00 | 0.00 | 61 | 1012.0 |
| 20260503205624 | 72 | 150 | 7.0 | 0.0 | 0.00 | 0.00 | 0.00 | 61 | 1012.0 |
| 20260503205317 | 76 | 150 | 7.0 | 0.0 | 0.00 | 0.00 | 0.00 | 61 | 1012.0 |
| 20260503205014 | 76 | 150 | 7.0 | 0.0 | 0.00 | 0.00 | 0.00 | 61 | 1012.0 |
| 20260503204712 | 80 | 150 | 7.0 | 0.0 | 0.00 | 0.00 | 0.00 | 61 | 1012.0 |
| 20260503204411 | 80 | 150 | 7.0 | 0.0 | 0.00 | 0.00 | 0.00 | 61 | 1012.0 |
| 20260503204107 | 72 | 150 | 7.0 | 0.0 | 0.00 | 0.00 | 0.00 | 61 | 1012.0 |
| 20260503203805 | 76 | 150 | 7.0 | 0.0 | 0.00 | 0.00 | 0.00 | 61 | 1012.0 |
| 20260503203502 | 76 | 150 | 7.0 | 0.0 | 0.00 | 0.00 | 0.00 | 61 | 1012.0 |
| 20260503203152 | 72 | 150 | 7.0 | 0.0 | 0.00 | 0.00 | 0.00 | 61 | 1012.0 |
| 20260503202851 | 76 | 150 | 7.0 | 0.0 | 0.00 | 0.00 | 0.00 | 61 | 1012.0 |
| 20260503202549 | 80 | 150 | 7.0 | 0.0 | 0.00 | 0.00 | 0.00 | 61 | 1012.0 |
| 20260503201933 | 80 | 150 | 7.0 | 0.0 | 0.00 | 0.00 | 0.00 | 61 | 1012.0 |
| 20260503201631 | 80 | 150 | 7.0 | 0.0 | 0.00 | 0.00 | 0.00 | 61 | 1012.0 |
| 20260503201330 | 72 | 150 | 7.0 | 0.0 | 0.00 | 0.00 | 0.00 | 61 | 1012.0 |
| 20260503201027 | 76 | 160 | 5.2 | 0.0 | 0.00 | 0.00 | 0.00 | 61 | 1012.0 |
| 20260503200726 | 76 | 160 | 5.2 | 0.0 | 0.00 | 0.00 | 0.00 | 61 | 1012.0 |
| 20260503200423 | 76 | 160 | 5.2 | 0.0 | 0.00 | 0.00 | 0.00 | 61 | 1012.0 |
| 20260503200121 | 76 | 160 | 5.2 | 0.0 | 0.00 | 0.00 | 0.00 | 61 | 1012.0 |
| 20260503195819 | 80 | 160 | 5.2 | 0.0 | 0.00 | 0.00 | 0.00 | 61 | 1012.0 |
| 20260503195516 | 72 | 160 | 5.2 | 0.0 | 0.00 | 0.00 | 0.00 | 61 | 1012.0 |
| 20260503195213 | 72 | 160 | 5.2 | 0.0 | 0.00 | 0.00 | 0.00 | 61 | 1012.0 |
| 20260503194906 | 72 | 160 | 5.2 | 0.0 | 0.00 | 0.00 | 0.00 | 61 | 1012.0 |